Quincy, IL

9:23 AM CDT on June 24, 2017 (GMT -0500)
Quincy Regional-Baldwin

Weather History for KUIN - January, 2013

Change the Weather History Date:

Tuesday, January 8, 2013

  Actual Average Record
Temperature  
Mean Temperature 39 °F 26 °F  
Max Temperature 47 °F 34 °F 64 °F (1965)
Min Temperature 31 °F 19 °F -19 °F (1912)
Degree Days  
Heating Degree Days 26 39  
Month to date heating degree days 317 308  
Since 1 July heating degree days 2365 2499  
Cooling Degree Days 0 0  
Month to date cooling degree days 0 0  
Year to date cooling degree days 0 0  
Moisture  
Dew Point 26 °F    
Average Humidity 59    
Maximum Humidity 72    
Minimum Humidity 45    
Precipitation  
Precipitation 0.00 in 0.05 in 2.39 in (1937)
Month to date precipitation 0.01 0.43  
Year to date precipitation 0.01 0.43  
Sea Level Pressure  
Sea Level Pressure 30.10 in    
Wind  
Wind Speed 9 mph (SSW)    
Max Wind Speed 14 mph    
Max Gust Speed 17 mph    
Visibility 10 miles    
Events      
T = Trace of Precipitation, MM = Missing Value Source: NWS Daily Summary

Daily Weather History Graph

Daily Weather History Graph

Search for Another Location

Airport or City:

Trip Planner

Search our weather history database for the weather conditions in past years. The results will help you decide how hot, cold, wet, or windy it might be!

Date:

Astronomy

Jan. 08, 2013 Rise Set
Actual Time 7:26 AM CST 4:57 PM CST
Civil Twilight 6:56 AM CST 5:27 PM CST
Nautical Twilight 6:22 AM CST 6:00 PM CST
Astronomical Twilight 5:49 AM CST 6:33 PM CST
Moon 3:59 AM CST (1/8) 1:59 PM CST (1/8)
Length of Visible Light 10h 30m
Length of Day
9h 30m
Waning Crescent, 13% of the Moon is Illuminated
Jan 8
Waning Crescent
Jan 11
New
Jan 18
First Quarter
Jan 26
Full
Feb 3
Last Quarter

Hourly Weather History & Observations

Time (CST) Temp. Windchill Dew Point Humidity Pressure Visibility Wind Dir Wind Speed Gust Speed Precip Events Conditions
12:54 AM 36.0 °F 27.5 °F 25.0 °F 64% 30.11 in 10.0 mi SSW 12.7 mph - N/A   Clear
1:54 AM 36.0 °F 28.5 °F 24.1 °F 62% 30.12 in 10.0 mi SSW 10.4 mph - N/A   Clear
2:54 AM 33.1 °F 24.9 °F 24.1 °F 70% 30.12 in 10.0 mi SSW 10.4 mph - N/A   Clear
3:54 AM 33.1 °F 24.9 °F 24.1 °F 70% 30.12 in 10.0 mi SSW 10.4 mph - N/A   Clear
4:54 AM 33.1 °F 25.5 °F 23.0 °F 66% 30.11 in 10.0 mi South 9.2 mph - N/A   Clear
5:54 AM 30.9 °F 23.5 °F 23.0 °F 72% 30.12 in 10.0 mi South 8.1 mph - N/A   Clear
6:54 AM 33.1 °F 24.9 °F 23.0 °F 66% 30.12 in 10.0 mi South 10.4 mph - N/A   Clear
7:54 AM 33.1 °F 25.5 °F 23.0 °F 66% 30.13 in 10.0 mi South 9.2 mph - N/A   Clear
8:54 AM 34.0 °F 26.6 °F 24.1 °F 67% 30.15 in 10.0 mi South 9.2 mph - N/A   Clear
9:54 AM 36.0 °F 28.5 °F 25.0 °F 64% 30.15 in 10.0 mi SSW 10.4 mph - N/A   Clear
10:54 AM 37.9 °F 31.5 °F 26.1 °F 62% 30.15 in 10.0 mi SSW 9.2 mph - N/A   Clear
11:54 AM 42.1 °F 36.1 °F 27.0 °F 55% 30.11 in 10.0 mi South 10.4 mph - N/A   Clear
12:54 PM 44.1 °F 38.1 °F 28.0 °F 53% 30.09 in 10.0 mi SSW 11.5 mph - N/A   Clear
1:54 PM 46.0 °F 41.4 °F 28.0 °F 50% 30.06 in 10.0 mi South 9.2 mph - N/A   Clear
2:54 PM 46.9 °F - 28.0 °F 48% 30.06 in 10.0 mi South 8.1 mph - N/A   Clear
3:54 PM 46.0 °F 42.5 °F 28.9 °F 51% 30.05 in 10.0 mi SSE 6.9 mph - N/A   Clear
4:54 PM 43.0 °F 38.8 °F 28.9 °F 58% 30.06 in 10.0 mi SSE 6.9 mph - N/A   Partly Cloudy
5:54 PM 42.8 °F 38.6 °F 28.4 °F 57% 30.04 in 10.0 mi SSE 6.9 mph - N/A   Overcast
6:54 PM 42.1 °F 38.4 °F 27.0 °F 55% 30.04 in 10.0 mi SSE 5.8 mph - N/A   Mostly Cloudy
7:54 PM 44.1 °F 40.8 °F 25.0 °F 47% 30.07 in 10.0 mi South 5.8 mph - N/A   Overcast
8:54 PM 39.9 °F 33.9 °F 27.0 °F 60% 30.08 in 10.0 mi SSW 9.2 mph - N/A   Clear
9:54 PM 37.9 °F 33.5 °F 26.1 °F 62% 30.09 in 10.0 mi SW 5.8 mph - N/A   Clear
10:54 PM 41.0 °F 35.8 °F 26.6 °F 57% 30.09 in 10.0 mi SW 8.1 mph - N/A   Clear
11:54 PM 39.9 °F 33.4 °F 28.0 °F 63% 30.12 in 10.0 mi SW 10.4 mph - N/A   Clear